Regional Weather Roundup
Issued by NWS

Home | Current Version | Previous Version | Graphics & Text | Print | Product List | Glossary On
Versions: 1 2 3 4 5 6 7 8 9 10 11 12 13 14 15 16 17 18 19 20 21 22 23 24 25 26 27 28 29 30 31 32 33 34 35 36 37 38 39 40 41 42 43 44 45 46 47 48 49 50
000
ASUS45 KBOI 060310
RWRID

IDAHO REGIONAL WEATHER ROUNDUP
NATIONAL WEATHER SERVICE BOISE ID
900 PM MDT SUN JUL 05 2015

NOTE: "FAIR" INDICATES FEW OR NO CLOUDS BELOW 12000 FEET
WITH NO SIGNIFICANT WEATHER AND/OR OBSTRUCTIONS TO VISIBILITY

IDZ012-014-060400-
SOUTHWEST IDAHO


CITY           SKY/WX    TMP DP  RH WIND       PRES   REMARKS
BOISE          MOCLDY    77  52  41 S3        29.94R
CALDWELL       MOCLDY    73  55  53 E3        29.92S
MOUNTAIN HOME  MOCLDY    79  50  36 W10       29.94S
$$

IDZ016-017-060400-
SOUTHCENTRAL IDAHO


CITY           SKY/WX    TMP DP  RH WIND       PRES   REMARKS
BURLEY         MOCLDY    71  54  54 SW9       30.01R
JEROME         MOCLDY    73  52  47 SW8       30.01S
TWIN FALLS     PTCLDY    74  51  44 SW10      30.00S
$$

IDZ019>023-060400-
SOUTHEAST IDAHO


CITY           SKY/WX    TMP DP  RH WIND       PRES   REMARKS
IDAHO FALLS    MOCLDY    72  52  49 SE6       30.01F
POCATELLO      MOCLDY    75  53  46 SW12      30.03R
REXBURG        MOCLDY    67  56  67 S6        30.03R
$$

IDZ006-010-011-018-031-032-060400-
CENTRAL IDAHO MOUNTAINS


CITY           SKY/WX    TMP DP  RH WIND       PRES   REMARKS
MCCALL         MOCLDY    73  51  46 SE8       30.05S
HAILEY         MOCLDY    73  45  35 NW9       30.08S
STANLEY          N/A     62  44  51 S3        30.19R
SALMON         CLOUDY    75  50  41 E7        29.96R
CHALLIS        CLOUDY    76  38  25 SW9       30.04R
$$

IDZ002-004-006-007-026-060400-
NORTHERN IDAHO


CITY           SKY/WX    TMP DP  RH WIND       PRES   REMARKS
LEWISTON       CLEAR     89  48  24 N14G22    29.82R
LOWELL           N/A     79  57  46 CALM      29.81R
COEUR D`ALENE  CLEAR     79  45  29 NE14      29.97R
MULLAN PASS    CLEAR     56  45  66 VRB6      30.17R
$$


USA.gov is the U.S. government's official web portal to all federal, state and local government web resources and services.